SUPERBIRD-B3

Last updated on Sun Apr 12 2026 00:02:55 GMT+0000 (Coordinated Universal Time)

1 43271U 18033A 26101.51572448 -.00000091 00000+0 00000+0 0 9997 2 43271 0.0220 259.4400 0000981 159.4761 128.4778 1.00271587 29399
UTC large
Height (km)
Speed (km/s)
/
Latitude / Longitude
Inclination (degrees)
Orbital Period (minutes)
Azimuth
Elevation
Range (km)
Doppler Factor

Next 0 passes for location: London (51.5072 / 0.1276)

Sorry there are no passes over London.
SUPERBIRD-B3